Location: Bottens
(46.6171°N, 6.6605°E)
Time: 15:20:35
(UTC+00:00)

Cosmos 1825 - Pass Details

Date: 20 June 2021
Orbit: 501 x 506 km, 82.5° (Epoch: 31 July)

Event Time Altitude Azimuth Distance (km) Brightness Sun altitude
Exits shadow 01:47:43 12° 262° (W) 1,626 4.4 -13.8°
Maximum altitude 01:49:27 15° 292° (WNW) 1,448 4.4 -13.6°
Drops below altitude 10° 01:51:39 10° 328° (NNW) 1,728 5.2 -13.4°
Sets 01:54:35 0° 353° (N) 2,618 6.6 -13.2°
